Weather History for PAPG - February, 2013

Change the Weather History Date:

Monday, February 11, 2013

  Actual Average Record
Temperature  
Mean Temperature 35 °F -  
Max Temperature 37 °F 35 °F 53 °F (2006)
Min Temperature 33 °F 27 °F 9 °F (1985)
Degree Days  
Heating Degree Days 30    
Moisture  
Dew Point 33 °F    
Average Humidity 90    
Maximum Humidity 93    
Minimum Humidity 87    
Precipitation  
Precipitation 0.43 in - - ()
Sea Level Pressure  
Sea Level Pressure 29.95 in    
Wind  
Wind Speed 1 mph (West)    
Max Wind Speed 5 mph    
Max Gust Speed -    
Visibility 8 miles    
Events      
Averages and records for this station are not official NWS values.
T = Trace of Precipitation, MM = Missing Value Source: NWS Daily Summary

Daily Weather History Graph

Daily Weather History Graph

Search for Another Location

Airport or City:

Trip Planner

Search our weather history database for the weather conditions in past years. The results will help you decide how hot, cold, wet, or windy it might be!

Date:

Astronomy

Feb. 11, 2013 Rise Set
Actual Time 7:27 AM AKST 4:45 PM AKST
Civil Twilight 6:47 AM AKST 5:25 PM AKST
Nautical Twilight 6:02 AM AKST 6:10 PM AKST
Astronomical Twilight 5:18 AM AKST 6:54 PM AKST
Moon 7:26 AM AKST (2/11) 7:26 PM AKST (2/11)
Length of Visible Light 10h 38m
Length of Day
9h 17m
Waxing Crescent, 3% of the Moon is Illuminated
Feb 11
Waxing Crescent
Feb 17
First Quarter
Feb 25
Full
Mar 4
Last Quarter
Mar 11
New

Hourly Weather History & Observations

Time (AKST) Temp. Windchill Dew Point Humidity Pressure Visibility Wind Dir Wind Speed Gust Speed Precip Events Conditions
2:36 AM - - - N/A% 30.02 in - WNW 3.5 mph - N/A   Unknown
3:16 AM 37.4 °F 33.8 °F 33.8 °F 87% 30.01 in 9.0 mi North 4.6 mph - N/A   Overcast
3:36 AM 37.4 °F - 33.8 °F 87% 30.01 in 10.0 mi Calm Calm - N/A   Overcast
3:56 AM 37.4 °F 34.9 °F 33.8 °F 87% 30.00 in 10.0 mi NW 3.5 mph - 0.01 in   Overcast
4:16 AM 35.6 °F - 33.8 °F 93% 30.00 in 10.0 mi Calm Calm - 0.01 in   Overcast
4:36 AM 35.6 °F 32.8 °F 33.8 °F 93% 30.00 in 10.0 mi NW 3.5 mph - 0.02 in   Overcast
4:56 AM 37.4 °F 33.8 °F 35.6 °F 93% 30.00 in 10.0 mi North 4.6 mph - 0.03 in   Overcast
5:16 AM 37.4 °F 34.9 °F 35.6 °F 93% 30.00 in 10.0 mi NNW 3.5 mph - 0.02 in   Overcast
5:36 AM 35.6 °F - 33.8 °F 93% 30.00 in 9.0 mi Calm Calm - 0.03 in   Overcast
5:56 AM 35.6 °F - 33.8 °F 93% 30.01 in 7.0 mi Calm Calm - 0.06 in   Overcast
6:16 AM 35.6 °F - 33.8 °F 93% 30.00 in 7.0 mi Calm Calm - 0.01 in   Overcast
6:36 AM 35.6 °F - 33.8 °F 93% 30.00 in 7.0 mi Calm Calm - 0.01 in   Overcast
6:56 AM 35.6 °F - 33.8 °F 93% 30.00 in 7.0 mi Calm Calm - 0.01 in   Overcast
7:16 AM 35.6 °F 32.8 °F 33.8 °F 93% 29.99 in 7.0 mi SSW 3.5 mph - 0.01 in   Overcast
7:36 AM 35.6 °F - 33.8 °F 93% 29.99 in 7.0 mi Calm Calm - 0.01 in   Overcast
7:56 AM 35.6 °F - 33.8 °F 93% 29.99 in 5.0 mi Calm Calm - 0.01 in   Overcast
8:16 AM 35.6 °F - 33.8 °F 93% 30.00 in 5.0 mi Calm Calm - 0.01 in   Overcast
8:36 AM 35.6 °F - 33.8 °F 93% 30.00 in 5.0 mi Calm Calm - 0.01 in   Overcast
8:56 AM 35.6 °F - 33.8 °F 93% 30.00 in 7.0 mi Calm Calm - 0.02 in   Overcast
9:16 AM 37.4 °F - 35.6 °F 93% 29.99 in 7.0 mi Calm Calm - N/A   Overcast
9:36 AM 37.4 °F 34.9 °F 33.8 °F 87% 30.00 in 7.0 mi SW 3.5 mph - 0.01 in   Overcast
9:56 AM 35.6 °F - 33.8 °F 93% 30.00 in 5.0 mi Calm Calm - 0.03 in   Overcast
10:16 AM 35.6 °F - 33.8 °F 93% 30.00 in 5.0 mi Calm Calm - 0.02 in   Overcast
10:36 AM 35.6 °F - 33.8 °F 93% 30.00 in 5.0 mi Calm Calm - 0.04 in   Overcast
10:56 AM 35.6 °F - 33.8 °F 93% 30.00 in 5.0 mi Calm Calm - 0.06 in   Overcast
11:16 AM 35.6 °F - 33.8 °F 93% 30.01 in 7.0 mi Calm Calm - N/A   Overcast
11:36 AM 35.6 °F - 33.8 °F 93% 30.00 in 7.0 mi Calm Calm - N/A   Overcast
11:56 AM 35.6 °F - 33.8 °F 93% 30.00 in 7.0 mi Calm Calm - N/A   Overcast
12:16 PM 37.4 °F - 33.8 °F 87% 30.00 in 7.0 mi Calm Calm - N/A   Overcast
12:36 PM 37.4 °F 34.9 °F 33.8 °F 87% 29.99 in 7.0 mi WNW 3.5 mph - N/A   Overcast
12:56 PM 37.4 °F - 33.8 °F 87% 29.99 in 10.0 mi Calm Calm - N/A   Overcast
1:56 PM 37.4 °F - 33.8 °F 87% 29.98 in 10.0 mi Calm Calm - N/A   Overcast
2:16 PM 37.4 °F - 35.6 °F 93% 29.98 in 10.0 mi Calm Calm - N/A   Overcast
2:36 PM 37.4 °F - 35.6 °F 93% 29.97 in 10.0 mi Calm Calm - N/A   Overcast
2:56 PM 37.4 °F - 35.6 °F 93% 29.97 in 7.0 mi Calm Calm - 0.01 in   Overcast
3:16 PM 37.4 °F - 33.8 °F 87% 29.97 in 7.0 mi Calm Calm - 0.01 in   Overcast
3:36 PM 37.4 °F - 33.8 °F 87% 29.96 in 7.0 mi Calm Calm - 0.01 in   Overcast
3:56 PM 37.4 °F - 33.8 °F 87% 29.96 in 10.0 mi Calm Calm - 0.01 in   Overcast
4:16 PM 37.4 °F - 33.8 °F 87% 29.96 in 10.0 mi Calm Calm - 0.01 in   Overcast
4:36 PM 37.4 °F - 33.8 °F 87% 29.95 in 10.0 mi Calm Calm - 0.02 in   Overcast
4:56 PM 35.6 °F - 33.8 °F 93% 29.94 in 7.0 mi Calm Calm - 0.02 in   Overcast
5:16 PM 35.6 °F - 33.8 °F 93% 29.94 in 7.0 mi Calm Calm - 0.01 in   Overcast
5:36 PM 35.6 °F 32.8 °F 33.8 °F 93% 29.93 in 7.0 mi SSW 3.5 mph - 0.03 in   Overcast
5:56 PM 35.6 °F 32.8 °F 32.0 °F 87% 29.92 in 7.0 mi SW 3.5 mph - 0.04 in   Overcast
6:16 PM 33.8 °F - 32.0 °F 93% 29.92 in 7.0 mi Calm Calm - 0.01 in   Overcast
6:36 PM 33.8 °F - 32.0 °F 93% 29.91 in 7.0 mi Calm Calm - 0.02 in   Overcast
6:56 PM 33.8 °F - 32.0 °F 93% 29.91 in - Calm Calm - 0.03 in   Overcast
7:16 PM 33.8 °F - 30.2 °F 87% 29.90 in 10.0 mi Calm Calm - N/A   Overcast
7:36 PM 33.8 °F - 30.2 °F 87% 29.89 in 10.0 mi Calm Calm - 0.01 in   Overcast
7:56 PM 33.8 °F - 30.2 °F 87% 29.89 in 10.0 mi Calm Calm - 0.02 in   Overcast
8:16 PM 33.8 °F - 30.2 °F 87% 29.88 in 10.0 mi Calm Calm - N/A   Overcast
8:36 PM 33.8 °F 30.8 °F 30.2 °F 87% 29.87 in 10.0 mi SW 3.5 mph - N/A   Overcast
8:56 PM 33.8 °F - 32.0 °F 93% 29.86 in 10.0 mi Calm Calm - 0.01 in   Overcast
9:16 PM 33.8 °F - 30.2 °F 87% 29.86 in 10.0 mi Calm Calm - 0.01 in   Overcast
9:36 PM 33.8 °F - 30.2 °F 87% 29.85 in 10.0 mi Calm Calm - 0.01 in   Overcast
9:56 PM 33.8 °F - 30.2 °F 87% 29.83 in 10.0 mi Calm Calm - 0.02 in   Overcast
10:36 PM 33.8 °F - 30.2 °F 87% 29.81 in 9.0 mi Calm Calm - 0.01 in   Unknown
10:56 PM 33.8 °F - 30.2 °F 87% 29.80 in 10.0 mi Calm Calm - 0.01 in   Overcast
11:16 PM 33.8 °F - 30.2 °F 87% 29.79 in 10.0 mi Calm Calm - 0.01 in   Overcast
11:36 PM 33.8 °F - 30.2 °F 87% 29.78 in 7.0 mi Calm Calm - 0.02 in   Overcast
11:56 PM 33.8 °F 30.8 °F 30.2 °F 87% 29.78 in 4.0 mi South 3.5 mph - 0.03 in   Overcast